| time (UTC) | temp F | wind direction | speed knots | gust knots | rain 1hr in | rain 24hr in | rain mn in | humidity % | barometer mb |
| 20260506113025 | 62 | 271 | 0.0 | 0.0 | 0.00 | 0.00 | 0.00 | 68 | 1006.8 |
| 20260506112025 | 63 | 271 | 0.0 | 0.0 | 0.00 | 0.00 | 0.00 | 67 | 1006.9 |
| 20260506111025 | 63 | 271 | 0.0 | 0.0 | 0.00 | 0.00 | 0.00 | 64 | 1006.7 |
| 20260506110025 | 64 | 270 | 0.0 | 0.0 | 0.00 | 0.00 | 0.00 | 60 | 1006.6 |
| 20260506105025 | 64 | 271 | 0.0 | 0.0 | 0.00 | 0.00 | 0.00 | 60 | 1006.4 |
| 20260506104025 | 64 | 271 | 0.0 | 2.6 | 0.00 | 0.00 | 0.00 | 60 | 1006.3 |
| 20260506103025 | 65 | 271 | 0.0 | 2.6 | 0.00 | 0.00 | 0.00 | 60 | 1006.2 |
| 20260506102025 | 65 | 231 | 0.9 | 4.3 | 0.00 | 0.00 | 0.00 | 60 | 1006.4 |
| 20260506101025 | 65 | 160 | 1.7 | 4.3 | 0.00 | 0.00 | 0.00 | 60 | 1006.0 |
| 20260506095025 | 65 | 156 | 1.7 | 7.0 | 0.00 | 0.00 | 0.00 | 57 | 1006.1 |
| 20260506093025 | 66 | 165 | 1.7 | 4.3 | 0.00 | 0.00 | 0.00 | 55 | 1006.1 |
| 20260506092025 | 66 | 163 | 1.7 | 2.6 | 0.00 | 0.00 | 0.00 | 54 | 1006.0 |
| 20260506091025 | 66 | 156 | 0.9 | 2.6 | 0.00 | 0.00 | 0.00 | 54 | 1006.2 |
| 20260506090025 | 66 | 175 | 0.9 | 2.6 | 0.00 | 0.00 | 0.00 | 54 | 1006.1 |
| 20260506085025 | 66 | 164 | 0.0 | 2.6 | 0.00 | 0.00 | 0.00 | 53 | 1006.2 |
| 20260506084025 | 66 | 170 | 0.0 | 2.6 | 0.00 | 0.00 | 0.00 | 53 | 1006.2 |
| 20260506082024 | 65 | 191 | 0.9 | 4.3 | 0.00 | 0.00 | 0.00 | 52 | 1006.2 |
| 20260506081025 | 65 | 200 | 0.0 | 2.6 | 0.00 | 0.00 | 0.00 | 53 | 1006.4 |
| 20260506073025 | 66 | 181 | 1.7 | 2.6 | 0.00 | 0.00 | 0.00 | 49 | 1006.4 |
| 20260506072025 | 66 | 190 | 1.7 | 4.3 | 0.00 | 0.00 | 0.00 | 49 | 1006.4 |
| 20260506071025 | 66 | 174 | 1.7 | 2.6 | 0.00 | 0.00 | 0.00 | 49 | 1006.3 |
| 20260506062026 | 67 | 166 | 1.7 | 4.3 | 0.00 | 0.00 | 0.00 | 48 | 1006.9 |
| 20260506061025 | 67 | 168 | 0.9 | 2.6 | 0.00 | 0.00 | 0.00 | 47 | 1007.1 |
| 20260506051025 | 67 | 164 | 2.6 | 4.3 | 0.00 | 0.00 | 0.00 | 47 | 1007.6 |
| 20260506045025 | 67 | 161 | 1.7 | 5.2 | 0.00 | 0.00 | 0.00 | 48 | 1007.7 |
| 20260506044025 | 67 | 164 | 1.7 | 4.3 | 0.00 | 0.00 | 0.00 | 49 | 1007.7 |
| 20260506043025 | 67 | 162 | 1.7 | 2.6 | 0.00 | 0.00 | 0.00 | 49 | 1007.5 |
| 20260506042025 | 68 | 168 | 1.7 | 4.3 | 0.00 | 0.00 | 0.00 | 48 | 1007.4 |
| 20260506041025 | 68 | 164 | 1.7 | 2.6 | 0.00 | 0.00 | 0.00 | 48 | 1007.5 |
| 20260506040025 | 68 | 160 | 0.9 | 2.6 | 0.00 | 0.00 | 0.00 | 49 | 1007.7 |
| 20260506033024 | 69 | 170 | 0.9 | 2.6 | 0.00 | 0.00 | 0.00 | 50 | 1007.8 |
| 20260506032024 | 69 | 172 | 0.9 | 2.6 | 0.00 | 0.00 | 0.00 | 51 | 1007.7 |
| 20260506031025 | 69 | 170 | 0.9 | 2.6 | 0.00 | 0.00 | 0.00 | 53 | 1007.8 |
| 20260506030025 | 68 | 183 | 0.0 | 2.6 | 0.00 | 0.00 | 0.00 | 54 | 1007.8 |
| 20260506025025 | 68 | 163 | 0.0 | 0.0 | 0.00 | 0.00 | 0.00 | 55 | 1007.9 |
| 20260506024025 | 68 | 163 | 0.9 | 2.6 | 0.00 | 0.00 | 0.00 | 54 | 1007.9 |
| 20260506023025 | 68 | 170 | 0.9 | 1.7 | 0.00 | 0.00 | 0.00 | 54 | 1007.9 |
| 20260506022025 | 68 | 177 | 0.0 | 1.7 | 0.00 | 0.00 | 0.00 | 53 | 1008.0 |
| 20260506021025 | 69 | 177 | 0.9 | 1.7 | 0.00 | 0.00 | 0.00 | 53 | 1008.0 |
| 20260506020025 | 68 | 177 | 0.0 | 0.0 | 0.00 | 0.00 | 0.00 | 54 | 1007.9 |
| 20260506015025 | 69 | 177 | 0.0 | 0.0 | 0.00 | 0.00 | 0.00 | 54 | 1007.8 |
| 20260506014025 | 69 | 187 | 0.0 | 0.0 | 0.00 | 0.00 | 0.00 | 53 | 1007.9 |
| 20260506013025 | 69 | 193 | 0.0 | 0.9 | 0.00 | 0.00 | 0.00 | 53 | 1007.8 |
| 20260506012025 | 69 | 160 | 0.0 | 1.7 | 0.00 | 0.00 | 0.00 | 53 | 1007.9 |
| 20260506011025 | 69 | 189 | 0.0 | 0.9 | 0.00 | 0.00 | 0.00 | 53 | 1007.8 |
| 20260506005025 | 69 | 191 | 0.0 | 0.9 | 0.00 | 0.00 | 0.00 | 53 | 1007.5 |
| 20260506004025 | 70 | 285 | 0.0 | 0.0 | 0.00 | 0.00 | 0.00 | 52 | 1007.4 |
| 20260506003025 | 70 | 285 | 0.0 | 0.9 | 0.00 | 0.00 | 0.00 | 50 | 1007.3 |
| 20260506002025 | 71 | 303 | 0.0 | 1.7 | 0.00 | 0.00 | 0.00 | 50 | 1007.2 |
| 20260506001025 | 71 | 289 | 0.0 | 2.6 | 0.00 | 0.00 | 0.00 | 48 | 1007.1 |
| 20260506000025 | 72 | 315 | 1.7 | 5.2 | 0.00 | 0.00 | 0.00 | 48 | 1007.0 |
| 20260505235025 | 72 | 328 | 2.6 | 7.0 | 0.00 | 0.00 | 0.00 | 46 | 1007.0 |
| 20260505234025 | 73 | 299 | 3.5 | 7.0 | 0.00 | 0.00 | 0.00 | 45 | 1006.9 |
| 20260505232025 | 74 | 341 | 1.7 | 5.2 | 0.00 | 0.00 | 0.00 | 43 | 1006.7 |
| 20260505231025 | 74 | 243 | 0.9 | 5.2 | 0.00 | 0.00 | 0.00 | 44 | 1006.6 |
| 20260505230025 | 74 | 207 | 1.7 | 4.3 | 0.00 | 0.00 | 0.00 | 44 | 1006.4 |
| 20260505225025 | 75 | 216 | 0.9 | 5.2 | 0.00 | 0.00 | 0.00 | 45 | 1006.3 |
| 20260505224025 | 75 | 214 | 1.7 | 6.1 | 0.00 | 0.00 | 0.00 | 43 | 1006.3 |
| 20260505223025 | 75 | 163 | 3.5 | 8.7 | 0.00 | 0.00 | 0.00 | 41 | 1006.4 |
| 20260505222025 | 75 | 158 | 1.7 | 6.1 | 0.00 | 0.00 | 0.00 | 41 | 1006.3 |
| 20260505221025 | 75 | 177 | 1.7 | 5.2 | 0.00 | 0.00 | 0.00 | 41 | 1006.2 |
| 20260505220025 | 76 | 168 | 2.6 | 7.8 | 0.00 | 0.00 | 0.00 | 41 | 1006.1 |
| 20260505215025 | 76 | 176 | 1.7 | 7.8 | 0.00 | 0.00 | 0.00 | 40 | 1005.8 |
| 20260505213025 | 77 | 208 | 1.7 | 7.8 | 0.00 | 0.00 | 0.00 | 39 | 1005.7 |
| 20260505212025 | 77 | 174 | 4.3 | 13.9 | 0.00 | 0.00 | 0.00 | 37 | 1005.8 |
| 20260505211025 | 77 | 144 | 1.7 | 10.4 | 0.00 | 0.00 | 0.00 | 37 | 1005.8 |
| 20260505210024 | 77 | 145 | 1.7 | 10.4 | 0.00 | 0.00 | 0.00 | 37 | 1005.8 |
| 20260505205025 | 77 | 178 | 3.5 | 12.2 | 0.00 | 0.00 | 0.00 | 36 | 1005.7 |
| 20260505204025 | 77 | 193 | 4.3 | 11.3 | 0.00 | 0.00 | 0.00 | 36 | 1005.7 |
| 20260505203025 | 77 | 152 | 5.2 | 10.4 | 0.00 | 0.00 | 0.00 | 36 | 1005.7 |
| 20260505202025 | 77 | 207 | 5.2 | 10.4 | 0.00 | 0.00 | 0.00 | 36 | 1005.7 |
| 20260505201025 | 78 | 166 | 3.5 | 14.8 | 0.00 | 0.00 | 0.00 | 37 | 1005.8 |
| 20260505200025 | 78 | 151 | 5.2 | 10.4 | 0.00 | 0.00 | 0.00 | 36 | 1005.8 |
| 20260505195025 | 79 | 143 | 5.2 | 10.4 | 0.00 | 0.00 | 0.00 | 36 | 1005.7 |
| 20260505194025 | 79 | 258 | 5.2 | 11.3 | 0.00 | 0.00 | 0.00 | 36 | 1005.7 |
| 20260505193025 | 80 | 150 | 6.1 | 13.9 | 0.00 | 0.00 | 0.00 | 36 | 1005.9 |
| 20260505192025 | 80 | 139 | 5.2 | 13.0 | 0.00 | 0.00 | 0.00 | 38 | 1005.9 |
| 20260505191025 | 80 | 216 | 5.2 | 11.3 | 0.00 | 0.00 | 0.00 | 38 | 1006.0 |
| 20260505190026 | 79 | 164 | 5.2 | 11.3 | 0.00 | 0.00 | 0.00 | 39 | 1006.2 |
| 20260505184025 | 79 | 212 | 5.2 | 10.4 | 0.00 | 0.00 | 0.00 | 41 | 1006.7 |
| 20260505182025 | 78 | 178 | 5.2 | 13.0 | 0.00 | 0.00 | 0.00 | 42 | 1006.9 |
| 20260505181024 | 78 | 189 | 4.3 | 12.2 | 0.00 | 0.00 | 0.00 | 43 | 1007.1 |
| 20260505180025 | 78 | 247 | 2.6 | 13.9 | 0.00 | 0.00 | 0.00 | 42 | 1007.3 |
| 20260505175025 | 78 | 167 | 2.6 | 10.4 | 0.00 | 0.00 | 0.00 | 41 | 1007.3 |
| 20260505174025 | 79 | 215 | 2.6 | 13.9 | 0.00 | 0.00 | 0.00 | 40 | 1007.3 |
| 20260505172025 | 79 | 176 | 4.3 | 7.8 | 0.00 | 0.00 | 0.00 | 41 | 1007.5 |
| 20260505171025 | 78 | 154 | 4.3 | 7.8 | 0.00 | 0.00 | 0.00 | 44 | 1007.4 |
| 20260505170025 | 78 | 156 | 2.6 | 14.8 | 0.00 | 0.00 | 0.00 | 46 | 1007.5 |
| 20260505165024 | 77 | 160 | 4.3 | 10.4 | 0.00 | 0.00 | 0.00 | 44 | 1007.8 |
| 20260505164025 | 77 | 156 | 2.6 | 10.4 | 0.00 | 0.00 | 0.00 | 45 | 1008.1 |
| 20260505163025 | 78 | 164 | 4.3 | 10.4 | 0.00 | 0.00 | 0.00 | 44 | 1008.2 |
| 20260505162025 | 78 | 139 | 2.6 | 10.4 | 0.00 | 0.00 | 0.00 | 45 | 1008.3 |
| 20260505152024 | 76 | 224 | 4.3 | 8.7 | 0.00 | 0.00 | 0.00 | 45 | 1008.8 |
| 20260505151025 | 75 | 210 | 3.5 | 11.3 | 0.00 | 0.00 | 0.00 | 46 | 1008.9 |
| 20260505125024 | 67 | 208 | 2.6 | 7.0 | 0.00 | 0.00 | 0.00 | 58 | 1009.4 |
| 20260505124025 | 66 | 170 | 1.7 | 4.3 | 0.00 | 0.00 | 0.00 | 60 | 1009.3 |
| 20260505122025 | 63 | 204 | 0.0 | 1.7 | 0.00 | 0.00 | 0.00 | 64 | 1009.2 |
| 20260505120025 | 62 | 211 | 0.0 | 2.6 | 0.00 | 0.00 | 0.00 | 65 | 1009.2 |
| 20260505115025 | 62 | 177 | 0.0 | 2.6 | 0.00 | 0.00 | 0.00 | 66 | 1009.3 |